(322506) = 2007 XL39 = 2011 WR16

Discovered at Mount Lemmon on 2007-11-12 by Mt. Lemmon Survey.

Orbit

Orbit type: Main Belt

Note: WebGL enabled browser required.

epoch2023-09-13.0
epoch JD2460200.5
perihelion date2019-10-23.26396
perihelion JD2458779.76396
argument of perihelion (°)315.24346
ascending node (°)49.52500
inclination (°)6.21684
eccentricity0.3080146
perihelion distance (AU)1.7944273
Tisserand w.r.t. Jupiter3.3
ΔV w.r.t. Earth (km/sec)8.7
semimajor axis (AU)2.5931577
mean anomaly (°)335.33111
mean daily motion (°/day)0.23602630
aphelion distance (AU)3.392
period (years)4.18
P-vector [x]0.99338902
P-vector [y]0.10906511
P-vector [z]-0.03581977
Q-vector [x]-0.07995259
Q-vector [y]0.88123102
Q-vector [z]0.46587496
absolute magnitude16.26
phase slope0.15
uncertainty0
referenceMPEC 2024-A34
observations used659
oppositions16
arc length (days)10163
first opposition used1996
last opposition used2023
residual rms (arc-secs)0.72
perturbers coarse indicatorM-v
perturbers precise indicator003Ek
first observation date used1996-01-14.0
last observation date used2023-11-11.0
computer nameMPCLINUX
JD of orbit computation2456847.847096
perihelion JD uncertainty (days)1.2854E-04
argument of perihelion uncertainty (°)5.3306E-05
ascending node uncertainty (°)4.3165E-05
inclination uncertainty (°)8.1245E-06
eccentricity uncertainty 1.4561E-07
perihelion distance uncertainty (AU)4.0776E-07
Minimum Orbit Intersection Distances (in AU)
for orbit epoch: 2460200.5, reference: E2024-A34
Mercury1.43362
Venus1.06842
Earth0.79875
Mars0.39794
Jupiter2.07128
Saturn6.10432
Uranus15.0916
Neptune27.2689

Observations

677 total observations over interval: 1996 01 14.48296 – 2023 11 11.111227
These data are available for download (format description).

Date (UT) J2000 RA J2000 Dec Magn Location Ref
1996 01 14.48296 10 41 28.83 +17 21 20.9   691 – Steward Observatory, Kitt Peak-Spacewatch MPS 404267
1996 01 14.51106 10 41 28.04 +17 21 29.4 21.4 V 691 – Steward Observatory, Kitt Peak-Spacewatch MPS 404267
1996 01 14.54783 10 41 27.01 +17 21 40.4   691 – Steward Observatory, Kitt Peak-Spacewatch MPS 404267
2001 05 22.02112 12 36 45.51 +00 00 02.3 20.9 R 807 – Cerro Tololo Observatory, La Serena MPS 404267
2001 05 22.08042 12 36 44.35 +00 00 01.7   807 – Cerro Tololo Observatory, La Serena MPS 404267
2004 01 28.36225 08 20 34.38 +28 58 35.1 20.3 V 691 – Steward Observatory, Kitt Peak-Spacewatch MPS 404267
2004 01 28.39058 08 20 32.45 +28 58 40.5 20.3 V 691 – Steward Observatory, Kitt Peak-Spacewatch MPS 404267
2004 01 28.41925 08 20 30.52 +28 58 45.7 21.0 V 691 – Steward Observatory, Kitt Peak-Spacewatch MPS 404267
2007 11 12.34008 07 36 44.85 +27 07 47.5 19.9 V G96 – Mt. Lemmon Survey MPS 280250
2007 11 12.34789 07 36 44.92 +27 07 49.4 19.8 V G96 – Mt. Lemmon Survey MPS 280250
2007 11 12.35582 07 36 45.00 +27 07 51.2 19.6 V G96 – Mt. Lemmon Survey MPS 280250
2007 11 12.36367 07 36 45.07 +27 07 52.8 19.8 V G96 – Mt. Lemmon Survey MPS 280250
2007 12 05.38279 07 31 29.62 +28 52 44.8 19.6 V 691 – Steward Observatory, Kitt Peak-Spacewatch MPS 280250
2007 12 05.40056 07 31 28.88 +28 52 50.4 19.6 V 691 – Steward Observatory, Kitt Peak-Spacewatch MPS 280250
2007 12 05.41846 07 31 28.16 +28 52 56.2 19.5 V 691 – Steward Observatory, Kitt Peak-Spacewatch MPS 280250
2007 12 13.32370 07 25 14.32 +29 33 40.4 19.3   704 – Lincoln Laboratory ETS, New Mexico MPS 231891
2007 12 13.33662 07 25 13.58 +29 33 44.6 19.7   704 – Lincoln Laboratory ETS, New Mexico MPS 231891
2007 12 13.34952 07 25 12.89 +29 33 48.6 19.6   704 – Lincoln Laboratory ETS, New Mexico MPS 231891
2007 12 13.36242 07 25 12.11 +29 33 52.0 20.0   704 – Lincoln Laboratory ETS, New Mexico MPS 231891
2007 12 13.37532 07 25 11.40 +29 33 56.3 19.6   704 – Lincoln Laboratory ETS, New Mexico MPS 231891
2007 12 20.19755 07 18 21.39 +30 07 17.3 18.9   704 – Lincoln Laboratory ETS, New Mexico MPS 231891
2007 12 20.21042 07 18 20.59 +30 07 20.4 19.1   704 – Lincoln Laboratory ETS, New Mexico MPS 231891
2007 12 20.22328 07 18 19.63 +30 07 23.8 19.5   704 – Lincoln Laboratory ETS, New Mexico MPS 231891
2007 12 20.23613 07 18 18.79 +30 07 27.5 19.4   704 – Lincoln Laboratory ETS, New Mexico MPS 231891
2007 12 20.24898 07 18 17.88 +30 07 31.4 19.5   704 – Lincoln Laboratory ETS, New Mexico MPS 231891
2007 12 30.29743 07 06 39.02 +30 48 55.2 19.5 V G96 – Mt. Lemmon Survey MPS 280250
2007 12 30.30181 07 06 38.70 +30 48 55.8 19.2 V G96 – Mt. Lemmon Survey MPS 280250
2007 12 30.30624 07 06 38.37 +30 48 57.0 19.3 V G96 – Mt. Lemmon Survey MPS 280250
2007 12 30.31062 07 06 38.05 +30 48 58.1 19.3 V G96 – Mt. Lemmon Survey MPS 280250
2009 02 26.35845 12 16 10.66 +05 55 17.9 21.1 V 691 – Steward Observatory, Kitt Peak-Spacewatch MPS 404267
2009 02 26.37654 12 16 09.89 +05 55 23.4 21.2 V 691 – Steward Observatory, Kitt Peak-Spacewatch MPS 404267
2009 02 26.39464 12 16 09.11 +05 55 28.8 21.4 V 691 – Steward Observatory, Kitt Peak-Spacewatch MPS 404267
2010 05 20.30608 15 45 28.76 -21 28 10.5 19.6 V G96 – Mt. Lemmon Survey MPS 404267
2010 05 20.32263 15 45 27.68 -21 28 09.1 19.6 V G96 – Mt. Lemmon Survey MPS 404267
2010 05 20.33102 15 45 27.18 -21 28 08.5 19.7 V G96 – Mt. Lemmon Survey MPS 404267
2011 11 16.37730 05 33 30.84 +27 11 56.2 19.0 V 691 – Steward Observatory, Kitt Peak-Spacewatch MPS 401321
2011 11 16.39357 05 33 29.96 +27 12 00.1 19.2 V 691 – Steward Observatory, Kitt Peak-Spacewatch MPS 401321
2011 11 16.40915 05 33 29.15 +27 12 03.5 18.5 V 691 – Steward Observatory, Kitt Peak-Spacewatch MPS 401321
2011 11 23.27431 05 27 09.14 +27 38 57.2 19.0 V 691 – Steward Observatory, Kitt Peak-Spacewatch MPS 401321
2011 11 23.29212 05 27 08.01 +27 39 01.3 19.1 V 691 – Steward Observatory, Kitt Peak-Spacewatch MPS 401321
2011 11 23.30994 05 27 06.89 +27 39 05.7 18.8 V 691 – Steward Observatory, Kitt Peak-Spacewatch MPS 401321
2011 11 25.56652 05 24 43.893 +27 47 00.30 19.2 g F51 – Pan-STARRS 1, Haleakala MPS 402592
2011 11 25.58199 05 24 42.845 +27 47 03.25 18.6 r F51 – Pan-STARRS 1, Haleakala MPS 402592
2011 11 25.59658 05 24 41.860 +27 47 06.06 18.7 r F51 – Pan-STARRS 1, Haleakala MPS 402592
2011 12 03.84493 05 15 13.00 +28 10 58.4 18.9 R D29 – Purple Mountain Observatory, XuYi Station MPS 402592
2011 12 03.86091 05 15 11.81 +28 11 01.2 19.1 R D29 – Purple Mountain Observatory, XuYi Station MPS 402592
2011 12 03.87689 05 15 10.70 +28 11 03.0 18.3 R D29 – Purple Mountain Observatory, XuYi Station MPS 402592
2011 12 06.54864 05 11 57.817 +28 17 00.72 18.2 i F51 – Pan-STARRS 1, Haleakala MPS 403929
2011 12 06.56155 05 11 56.872 +28 17 01.40 18.6 i F51 – Pan-STARRS 1, Haleakala MPS 403929
2011 12 26.22166 04 50 18.78 +28 34 31.8 18.4 V G96 – Mt. Lemmon Survey MPS 404749
2011 12 26.22915 04 50 18.34 +28 34 31.9 18.4 V G96 – Mt. Lemmon Survey MPS 404749
2011 12 26.23666 04 50 17.91 +28 34 31.8 18.4 V G96 – Mt. Lemmon Survey MPS 404749
2011 12 26.24412 04 50 17.48 +28 34 31.8 18.6 V G96 – Mt. Lemmon Survey MPS 404749
2011 12 30.15011 04 47 03.68 +28 33 52.5 19.4   704 – Lincoln Laboratory ETS, New Mexico MPS 406021
2011 12 30.16321 04 47 03.03 +28 33 52.8 19.4   704 – Lincoln Laboratory ETS, New Mexico MPS 406021
2011 12 30.17668 04 47 02.44 +28 33 52.2 19.4   704 – Lincoln Laboratory ETS, New Mexico MPS 406021
2013 03 17.26051 11 18 11.56 +12 51 52.2   I41 – Palomar Mountain--ZTF MPS 461630
2013 03 17.29036 11 18 09.99 +12 51 59.8   I41 – Palomar Mountain--ZTF MPS 461630
2013 03 18.26293 11 17 19.87 +12 55 57.8   I41 – Palomar Mountain--ZTF MPS 461630
2013 03 18.28822 11 17 18.56 +12 56 04.2 20.9 V G96 – Mt. Lemmon Survey MPS 461630
2013 03 18.29255 11 17 18.32 +12 56 04.8   I41 – Palomar Mountain--ZTF MPS 461630
2013 03 18.29403 11 17 18.20 +12 56 05.1 20.2 V G96 – Mt. Lemmon Survey MPS 461630
2013 03 18.30060 11 17 17.88 +12 56 06.9 20.8 V G96 – Mt. Lemmon Survey MPS 461630
2013 03 18.30648 11 17 17.55 +12 56 07.9 20.7 V G96 – Mt. Lemmon Survey MPS 461630
2014 03 25.46180 15 24 27.37 -17 08 33.1 21.5 V 691 – Steward Observatory, Kitt Peak-Spacewatch MPS 508403
2014 03 25.47959 15 24 27.07 -17 08 32.9 21.2 V 691 – Steward Observatory, Kitt Peak-Spacewatch MPS 508403
2014 03 25.49735 15 24 26.65 -17 08 33.5 20.9 V 691 – Steward Observatory, Kitt Peak-Spacewatch MPS 508403
2014 04 25.37809 15 05 29.77 -16 30 58.7 20.5 V G96 – Mt. Lemmon Survey MPS 512363
2014 04 25.38349 15 05 29.51 -16 30 57.7 20.3 V G96 – Mt. Lemmon Survey MPS 512363
2014 04 25.38886 15 05 29.19 -16 30 57.0 20.6 V G96 – Mt. Lemmon Survey MPS 512363
2014 04 25.39430 15 05 28.92 -16 30 56.6 20.8 V G96 – Mt. Lemmon Survey MPS 512363
2014 04 26.36129 15 04 36.49 -16 28 42.2 20.5 V W84 – Cerro Tololo-DECam MPS 789675
2014 04 26.36447 15 04 36.31 -16 28 41.7   W84 – Cerro Tololo-DECam MPS 789675
2014 04 26.36771 15 04 36.11 -16 28 41.1   W84 – Cerro Tololo-DECam MPS 789675
2014 05 09.36720 14 52 10.009 -15 56 16.55 20.1 i F51 – Pan-STARRS 1, Haleakala MPS 515151
2014 05 09.37987 14 52 09.237 -15 56 14.44 20.0 i F51 – Pan-STARRS 1, Haleakala MPS 515151
2014 05 09.39255 14 52 08.474 -15 56 12.48 20.2 i F51 – Pan-STARRS 1, Haleakala MPS 515151
2014 05 09.40523 14 52 07.700 -15 56 10.48 20.4 i F51 – Pan-STARRS 1, Haleakala MPS 515151
2014 05 21.33917 14 40 43.208 -15 24 53.21 20.4 w F51 – Pan-STARRS 1, Haleakala MPS 516341
2014 05 21.35266 14 40 42.450 -15 24 51.22 20.3 w F51 – Pan-STARRS 1, Haleakala MPS 516341
2014 05 21.37960 14 40 40.927 -15 24 47.19 20.4 w F51 – Pan-STARRS 1, Haleakala MPS 516341
2014 05 27.34188 14 35 28.465 -15 10 34.64 20.8 w F51 – Pan-STARRS 1, Haleakala MPS 517785
2014 05 27.35296 14 35 27.895 -15 10 33.15 20.7 w F51 – Pan-STARRS 1, Haleakala MPS 517785
2014 05 27.36406 14 35 27.320 -15 10 31.66 20.7 w F51 – Pan-STARRS 1, Haleakala MPS 517785
2014 05 27.37517 14 35 26.752 -15 10 30.21 20.7 w F51 – Pan-STARRS 1, Haleakala MPS 517785
2014 05 29.36620 14 33 49.389 -15 06 10.07 20.6 w F51 – Pan-STARRS 1, Haleakala MPS 517785
2014 05 29.37698 14 33 48.856 -15 06 08.77 20.7 w F51 – Pan-STARRS 1, Haleakala MPS 517785
